Fort Stockton, TX

8:56 PM CST on January 23, 2018 (GMT -0600)
Fort Stockton-Pecos County

Weather History for KFST - November, 2012

Change the Weather History Date:

Sunday, November 11, 2012

  Actual Average Record
Temperature  
Mean Temperature 54 °F -  
Max Temperature 64 °F 66 °F 91 °F (2011)
Min Temperature 43 °F 44 °F 36 °F (1997)
Degree Days  
Heating Degree Days 12    
Growing Degree Days 4 (Base 50)    
Moisture  
Dew Point 26 °F    
Average Humidity 37    
Maximum Humidity 78    
Minimum Humidity 15    
Precipitation  
Precipitation 0.00 in - - ()
Sea Level Pressure  
Sea Level Pressure 29.96 in    
Wind  
Wind Speed 9 mph (NW)    
Max Wind Speed 22 mph    
Max Gust Speed 30 mph    
Visibility 10 miles    
Events      
Averages and records for this station are not official NWS values.
T = Trace of Precipitation, MM = Missing Value Source: NWS Daily Summary

Daily Weather History Graph

Daily Weather History Graph

Search for Another Location

Airport or City:

Trip Planner

Search our weather history database for the weather conditions in past years. The results will help you decide how hot, cold, wet, or windy it might be!

Date:

Astronomy

Nov. 11, 2012 Rise Set
Actual Time 7:15 AM CST 5:55 PM CST
Civil Twilight 6:50 AM CST 6:21 PM CST
Nautical Twilight 6:21 AM CST 6:50 PM CST
Astronomical Twilight 5:52 AM CST 7:18 PM CST
Moon 4:40 AM CST (11/11) 4:14 PM CST (11/11)
Length of Visible Light 11h 31m
Length of Day
10h 40m
Waning Crescent, 7% of the Moon is Illuminated
Nov 11
Waning Crescent
Nov 13
New
Nov 20
First Quarter
Nov 28
Full
Dec 6
Last Quarter

Hourly Weather History & Observations

Time (CST) Temp. Windchill Dew Point Humidity Pressure Visibility Wind Dir Wind Speed Gust Speed Precip Events Conditions
12:25 AM 62.6 °F - 53.6 °F 72% 29.80 in 10.0 mi Variable 4.6 mph - N/A   Mostly Cloudy
12:53 AM 62.1 °F - 53.1 °F 72% 29.68 in 10.0 mi WNW 6.9 mph - N/A   Overcast
1:26 AM 60.8 °F - 51.8 °F 72% 29.82 in 10.0 mi Calm Calm - N/A   Overcast
1:53 AM 59.0 °F - 52.0 °F 78% 29.70 in 10.0 mi NW 3.5 mph - N/A   Overcast
2:53 AM 57.9 °F - 50.0 °F 75% 29.73 in 10.0 mi North 8.1 mph - N/A   Overcast
3:53 AM 57.0 °F - 35.1 °F 44% 29.76 in 10.0 mi NNW 15.0 mph - N/A   Partly Cloudy
4:53 AM 54.0 °F - 33.1 °F 45% 29.80 in 10.0 mi WNW 9.2 mph - N/A   Clear
5:53 AM 52.0 °F - 32.0 °F 47% 29.86 in 10.0 mi WNW 9.2 mph - N/A   Clear
6:53 AM 50.0 °F - 30.9 °F 48% 29.92 in 10.0 mi NNW 10.4 mph - N/A   Clear
7:53 AM 48.0 °F - 30.9 °F 52% 29.96 in 10.0 mi NNW 5.8 mph - N/A   Clear
8:53 AM 52.0 °F - 26.1 °F 37% 29.99 in 10.0 mi NNW 8.1 mph - N/A   Clear
9:53 AM 55.0 °F - 23.0 °F 29% 30.01 in 10.0 mi North 5.8 mph - N/A   Clear
11:53 AM 61.0 °F - 23.0 °F 23% 30.00 in 10.0 mi NW 17.3 mph 25.3 mph N/A   Clear
12:53 PM 63.0 °F - 23.0 °F 22% 29.98 in 10.0 mi WNW 19.6 mph 29.9 mph N/A   Clear
1:53 PM 63.0 °F - 21.9 °F 21% 29.97 in 10.0 mi NW 19.6 mph 27.6 mph N/A   Clear
2:53 PM 64.9 °F - 21.9 °F 19% 29.97 in 10.0 mi NW 16.1 mph 24.2 mph N/A   Clear
3:53 PM 63.0 °F - 19.9 °F 19% 29.98 in 10.0 mi NW 21.9 mph 27.6 mph N/A   Clear
4:53 PM 62.1 °F - 15.1 °F 16% 30.01 in 10.0 mi NNW 17.3 mph 24.2 mph N/A   Clear
5:53 PM 57.9 °F - 10.0 °F 15% 30.04 in 10.0 mi NNW 16.1 mph 26.5 mph N/A   Clear
6:53 PM 54.0 °F - 6.1 °F 15% 30.10 in 10.0 mi NW 9.2 mph - N/A   Clear
7:53 PM 48.9 °F - 6.1 °F 18% 30.16 in 10.0 mi NW 9.2 mph - N/A   Clear
8:53 PM 45.0 °F 41.2 °F 6.1 °F 20% 30.20 in 10.0 mi WNW 6.9 mph - N/A   Clear
9:53 PM 43.0 °F 40.3 °F 5.0 °F 21% 30.24 in 10.0 mi West 4.6 mph - N/A   Clear
10:53 PM 45.0 °F - 6.1 °F 20% 30.26 in 10.0 mi Calm Calm - N/A   Clear